User: anonymous   Login
Location: Tel Aviv
(32.0670°N, 34.7670°E)
Time: 15:39:18
(UTC+02:00)
Language:

TIGRISAT - Orbit

View from above orbital plane
View from above orbital plane
View from above satellite
View from above satellite

Ground track
Ground track

The orbit data is extracted from the following two-line orbital elements,

1 40043U 14033AK  24065.05180495  .00002784  00000-0  38280-3 0  9996
2 40043  97.6826 232.4105 0055080 282.8756  76.6306 14.78043976522370
Epoch (UTC): 05 March 2024 01:14:35
Eccentricity: 0.0055080
inclination: 97.6826°
perigee height: 597 km
apogee height: 674 km
right ascension of ascending node: 232.4105°
argument of perigee: 282.8756°
revolutions per day: 14.78043976
mean anomaly at epoch: 76.6306°
orbit number at epoch: 52237

The dashed part of the orbit path shows where the satellite is in the earth's shadow,  

DLR